Time,TemperatureF,DewpointF,PressureIn,WindDirection,WindDirectionDegrees,WindSpeedMPH,WindSpeedGustMPH,Humidity,HourlyPrecipIn,Conditions,Clouds,dailyrainin,SoftwareType,DateUTC
2013-10-07 00:01:00,79.3,71.1,29.91,South,184,0.0,1.0,76,0.00,,,0.00,meteohub,2013-10-07 04:01:00,
2013-10-07 00:02:00,79.3,71.1,29.91,South,184,0.0,1.0,76,0.00,,,0.00,meteohub,2013-10-07 04:02:00,
2013-10-07 00:07:00,79.5,71.6,29.90,South,184,0.0,1.0,77,0.00,,,0.00,meteohub,2013-10-07 04:07:00,
2013-10-07 00:12:00,79.5,71.2,29.90,South,182,0.0,1.0,76,0.00,,,0.00,meteohub,2013-10-07 04:12:00,
2013-10-07 00:17:00,79.5,71.2,29.90,South,176,0.0,1.0,76,0.00,,,0.00,meteohub,2013-10-07 04:17:00,
2013-10-07 00:22:00,79.5,71.2,29.89,South,180,0.0,1.0,76,0.00,,,0.00,meteohub,2013-10-07 04:22:00,
2013-10-07 00:27:00,79.7,71.1,29.90,South,176,0.0,3.0,75,0.00,,,0.00,meteohub,2013-10-07 04:27:00,
2013-10-07 00:32:00,79.5,71.2,29.89,South,176,0.0,3.0,76,0.00,,,0.00,meteohub,2013-10-07 04:32:00,
2013-10-07 00:37:00,79.5,71.2,29.89,SSW,198,0.0,4.0,76,0.00,,,0.00,meteohub,2013-10-07 04:37:00,
2013-10-07 00:43:00,79.5,71.2,29.89,SSW,198,0.0,4.0,76,0.00,,,0.00,meteohub,2013-10-07 04:43:00,
2013-10-07 00:48:00,79.5,71.2,29.89,SW,217,1.0,4.0,76,0.00,,,0.00,meteohub,2013-10-07 04:48:00,
2013-10-07 00:53:00,79.3,71.1,29.89,SW,217,0.0,3.0,76,0.00,,,0.00,meteohub,2013-10-07 04:53:00,
2013-10-07 00:58:00,79.2,71.2,29.89,SW,217,0.0,3.0,77,0.00,,,0.00,meteohub,2013-10-07 04:58:00,
2013-10-07 01:03:00,79.0,71.1,29.89,SW,217,0.0,3.0,77,0.00,,,0.00,meteohub,2013-10-07 05:03:00,
2013-10-07 01:08:00,78.6,71.2,29.88,SW,217,0.0,0.0,78,0.00,,,0.00,meteohub,2013-10-07 05:08:00,
2013-10-07 01:13:00,78.4,71.4,29.89,SW,217,0.0,0.0,79,0.00,,,0.00,meteohub,2013-10-07 05:13:00,
2013-10-07 01:18:00,78.3,71.2,29.88,SW,217,0.0,0.0,79,0.00,,,0.00,meteohub,2013-10-07 05:18:00,
2013-10-07 01:23:00,77.9,71.2,29.88,SW,217,0.0,0.0,80,0.00,,,0.00,meteohub,2013-10-07 05:23:00,
2013-10-07 01:28:00,77.5,70.9,29.88,SW,217,0.0,0.0,80,0.00,,,0.00,meteohub,2013-10-07 05:28:00,
2013-10-07 01:33:00,77.4,71.4,29.88,SW,217,0.0,0.0,82,0.00,,,0.00,meteohub,2013-10-07 05:33:00,
2013-10-07 01:38:00,77.0,71.1,29.88,SW,217,0.0,0.0,82,0.00,,,0.00,meteohub,2013-10-07 05:38:00,
2013-10-07 01:43:00,76.8,71.2,29.88,SW,217,0.0,0.0,83,0.00,,,0.00,meteohub,2013-10-07 05:43:00,
2013-10-07 01:48:00,76.5,71.2,29.88,SW,217,0.0,0.0,84,0.00,,,0.00,meteohub,2013-10-07 05:48:00,
2013-10-07 01:53:00,76.3,71.1,29.88,SW,217,0.0,0.0,84,0.00,,,0.00,meteohub,2013-10-07 05:53:00,
2013-10-07 01:58:00,75.9,71.1,29.88,SW,217,0.0,0.0,85,0.00,,,0.00,meteohub,2013-10-07 05:58:00,
2013-10-07 02:03:00,75.7,70.9,29.88,SW,217,0.0,0.0,85,0.00,,,0.00,meteohub,2013-10-07 06:03:00,
2013-10-07 02:08:00,75.4,70.5,29.88,SW,217,0.0,0.0,85,0.00,,,0.00,meteohub,2013-10-07 06:08:00,
2013-10-07 02:13:00,75.2,70.3,29.87,SW,217,0.0,0.0,85,0.00,,,0.00,meteohub,2013-10-07 06:13:00,
2013-10-07 02:18:00,75.0,70.5,29.87,SW,217,0.0,0.0,86,0.00,,,0.00,meteohub,2013-10-07 06:18:00,
2013-10-07 02:23:00,75.0,70.9,29.87,SW,217,0.0,0.0,87,0.00,,,0.00,meteohub,2013-10-07 06:23:00,
2013-10-07 02:28:00,74.8,71.1,29.87,SW,217,0.0,0.0,88,0.00,,,0.00,meteohub,2013-10-07 06:28:00,
2013-10-07 02:33:00,74.7,70.5,29.87,SW,217,0.0,0.0,87,0.00,,,0.00,meteohub,2013-10-07 06:33:00,
2013-10-07 02:38:00,74.5,70.7,29.87,SW,217,0.0,0.0,88,0.00,,,0.00,meteohub,2013-10-07 06:38:00,
2013-10-07 02:43:00,74.5,70.7,29.87,SW,217,0.0,0.0,88,0.00,,,0.00,meteohub,2013-10-07 06:43:00,
2013-10-07 02:48:00,74.1,70.3,29.87,SW,217,0.0,0.0,88,0.00,,,0.00,meteohub,2013-10-07 06:48:00,
2013-10-07 02:53:00,73.9,70.2,29.87,SW,217,0.0,0.0,88,0.00,,,0.00,meteohub,2013-10-07 06:53:00,
2013-10-07 02:58:00,73.8,70.3,29.87,SW,217,0.0,0.0,89,0.00,,,0.00,meteohub,2013-10-07 06:58:00,
2013-10-07 03:03:00,73.4,70.0,29.86,SW,217,0.0,0.0,89,0.00,,,0.00,meteohub,2013-10-07 07:03:00,
2013-10-07 03:08:00,73.2,70.2,29.86,SW,217,0.0,0.0,90,0.00,,,0.00,meteohub,2013-10-07 07:08:00,
2013-10-07 03:13:00,73.2,70.2,29.86,SW,217,0.0,0.0,90,0.00,,,0.00,meteohub,2013-10-07 07:13:00,
2013-10-07 03:18:00,73.0,70.3,29.86,SW,217,0.0,0.0,91,0.00,,,0.00,meteohub,2013-10-07 07:18:00,
2013-10-07 03:23:00,73.0,70.3,29.86,SW,217,0.0,0.0,91,0.00,,,0.00,meteohub,2013-10-07 07:23:00,
2013-10-07 03:28:00,72.9,70.2,29.86,SW,217,0.0,0.0,91,0.00,,,0.00,meteohub,2013-10-07 07:28:00,
2013-10-07 03:33:00,72.7,70.2,29.86,SW,217,0.0,0.0,92,0.00,,,0.00,meteohub,2013-10-07 07:33:00,
2013-10-07 03:39:00,72.5,70.0,29.86,SW,217,0.0,0.0,92,0.00,,,0.00,meteohub,2013-10-07 07:39:00,
2013-10-07 03:44:00,72.3,69.8,29.86,SW,217,0.0,0.0,92,0.00,,,0.00,meteohub,2013-10-07 07:44:00,
2013-10-07 03:49:00,72.3,69.8,29.86,SW,217,0.0,0.0,92,0.00,,,0.00,meteohub,2013-10-07 07:49:00,
2013-10-07 03:54:00,72.3,70.2,29.86,SW,217,0.0,0.0,93,0.00,,,0.00,meteohub,2013-10-07 07:54:00,
2013-10-07 03:59:00,72.3,70.2,29.86,SW,217,0.0,0.0,93,0.00,,,0.00,meteohub,2013-10-07 07:59:00,
2013-10-07 04:04:00,72.1,70.0,29.86,SW,217,0.0,0.0,93,0.00,,,0.00,meteohub,2013-10-07 08:04:00,
2013-10-07 04:09:00,72.3,70.2,29.86,SW,217,0.0,0.0,93,0.00,,,0.00,meteohub,2013-10-07 08:09:00,
2013-10-07 04:14:00,72.5,70.3,29.86,SW,217,0.0,0.0,93,0.00,,,0.00,meteohub,2013-10-07 08:14:00,
2013-10-07 04:19:00,72.7,70.5,29.86,SW,217,0.0,0.0,93,0.00,,,0.00,meteohub,2013-10-07 08:19:00,
2013-10-07 04:24:00,72.9,70.7,29.86,WSW,250,0.0,0.0,93,0.00,,,0.00,meteohub,2013-10-07 08:24:00,
2013-10-07 04:29:00,73.0,70.5,29.86,WSW,250,0.0,2.0,92,0.00,,,0.00,meteohub,2013-10-07 08:29:00,
2013-10-07 04:34:00,73.4,70.9,29.86,WSW,253,0.0,2.0,92,0.00,,,0.00,meteohub,2013-10-07 08:34:00,
2013-10-07 04:39:00,73.6,70.7,29.86,WSW,244,1.0,2.0,91,0.00,,,0.00,meteohub,2013-10-07 08:39:00,
2013-10-07 04:44:00,73.8,70.9,29.86,SW,232,0.0,1.0,91,0.00,,,0.00,meteohub,2013-10-07 08:44:00,
2013-10-07 04:49:00,73.9,71.1,29.85,WSW,238,0.0,2.0,91,0.00,,,0.00,meteohub,2013-10-07 08:49:00,
2013-10-07 04:54:00,73.9,71.1,29.85,SW,234,0.0,2.0,91,0.00,,,0.00,meteohub,2013-10-07 08:54:00,
2013-10-07 04:59:00,74.1,71.2,29.85,WSW,240,0.0,2.0,91,0.00,,,0.00,meteohub,2013-10-07 08:59:00,
2013-10-07 05:04:00,74.1,71.1,29.85,West,267,1.0,3.0,90,0.00,,,0.00,meteohub,2013-10-07 09:04:00,
2013-10-07 05:09:00,74.3,71.2,29.86,West,259,0.0,3.0,90,0.00,,,0.00,meteohub,2013-10-07 09:09:00,
2013-10-07 05:14:00,74.3,71.2,29.86,WSW,257,0.0,3.0,90,0.00,,,0.00,meteohub,2013-10-07 09:14:00,
2013-10-07 05:19:00,74.5,71.4,29.86,WSW,254,0.0,3.0,90,0.00,,,0.00,meteohub,2013-10-07 09:19:00,
2013-10-07 05:24:00,74.5,71.4,29.85,WSW,249,0.0,4.0,90,0.00,,,0.00,meteohub,2013-10-07 09:24:00,
2013-10-07 05:29:00,74.3,71.4,29.85,WSW,249,0.0,4.0,91,0.00,,,0.00,meteohub,2013-10-07 09:29:00,
2013-10-07 05:34:00,74.3,71.4,29.86,WSW,249,0.0,4.0,91,0.00,,,0.00,meteohub,2013-10-07 09:34:00,
2013-10-07 05:39:00,74.1,71.2,29.86,WSW,249,0.0,2.0,91,0.00,,,0.00,meteohub,2013-10-07 09:39:00,
2013-10-07 05:44:00,73.9,71.1,29.86,WSW,244,0.0,1.0,91,0.00,,,0.00,meteohub,2013-10-07 09:44:00,
2013-10-07 05:49:00,73.9,71.1,29.86,WSW,244,0.0,0.0,91,0.00,,,0.00,meteohub,2013-10-07 09:49:00,
2013-10-07 05:54:00,73.9,71.1,29.86,WSW,244,0.0,0.0,91,0.00,,,0.00,meteohub,2013-10-07 09:54:00,
2013-10-07 05:59:00,73.9,71.1,29.86,WSW,244,0.0,1.0,91,0.00,,,0.00,meteohub,2013-10-07 09:59:00,
2013-10-07 06:04:00,73.9,71.1,29.86,WSW,244,0.0,1.0,91,0.00,,,0.00,meteohub,2013-10-07 10:04:00,
2013-10-07 06:09:00,73.8,70.9,29.86,WSW,244,0.0,1.0,91,0.00,,,0.00,meteohub,2013-10-07 10:09:00,
2013-10-07 06:14:00,73.8,71.2,29.86,WSW,244,0.0,1.0,92,0.00,,,0.00,meteohub,2013-10-07 10:14:00,
2013-10-07 06:19:00,73.6,71.1,29.86,WSW,244,0.0,1.0,92,0.00,,,0.00,meteohub,2013-10-07 10:19:00,
2013-10-07 06:24:00,73.6,71.1,29.87,WSW,244,0.0,0.0,92,0.00,,,0.00,meteohub,2013-10-07 10:24:00,
2013-10-07 06:29:00,73.6,71.1,29.86,WSW,244,0.0,0.0,92,0.00,,,0.00,meteohub,2013-10-07 10:29:00,
2013-10-07 06:34:00,73.6,71.1,29.87,WSW,244,0.0,0.0,92,0.00,,,0.00,meteohub,2013-10-07 10:34:00,
2013-10-07 06:39:00,73.2,70.7,29.87,WSW,244,0.0,0.0,92,0.00,,,0.00,meteohub,2013-10-07 10:39:00,
2013-10-07 06:44:00,73.0,70.5,29.88,WSW,244,0.0,0.0,92,0.00,,,0.00,meteohub,2013-10-07 10:44:00,
2013-10-07 06:50:00,73.0,70.9,29.88,WSW,244,0.0,0.0,93,0.00,,,0.00,meteohub,2013-10-07 10:50:00,
2013-10-07 06:55:00,72.9,70.7,29.88,WSW,244,0.0,0.0,93,0.00,,,0.00,meteohub,2013-10-07 10:55:00,
2013-10-07 07:00:00,72.7,70.5,29.88,WSW,244,0.0,0.0,93,0.00,,,0.00,meteohub,2013-10-07 11:00:00,
2013-10-07 07:05:00,72.5,70.7,29.88,WSW,244,0.0,0.0,94,0.00,,,0.00,meteohub,2013-10-07 11:05:00,
2013-10-07 07:10:00,72.5,70.7,29.88,WSW,244,0.0,0.0,94,0.00,,,0.00,meteohub,2013-10-07 11:10:00,
2013-10-07 07:15:00,72.5,70.7,29.88,WSW,244,0.0,0.0,94,0.00,,,0.00,meteohub,2013-10-07 11:15:00,
2013-10-07 07:20:00,72.7,70.9,29.88,WSW,244,0.0,0.0,94,0.00,,,0.00,meteohub,2013-10-07 11:20:00,
2013-10-07 07:25:00,72.7,70.9,29.88,WSW,244,0.0,0.0,94,0.00,,,0.00,meteohub,2013-10-07 11:25:00,
2013-10-07 07:30:00,72.9,71.1,29.88,WSW,244,0.0,0.0,94,0.00,,,0.00,meteohub,2013-10-07 11:30:00,
2013-10-07 07:35:00,73.0,71.2,29.88,WSW,244,0.0,0.0,94,0.00,,,0.00,meteohub,2013-10-07 11:35:00,
2013-10-07 07:40:00,73.2,71.4,29.88,WSW,244,0.0,1.0,94,0.00,,,0.00,meteohub,2013-10-07 11:40:00,
2013-10-07 07:45:00,73.4,71.6,29.88,WSW,242,0.0,1.0,94,0.00,,,0.00,meteohub,2013-10-07 11:45:00,
2013-10-07 07:50:00,73.6,71.8,29.89,WSW,242,0.0,1.0,94,0.00,,,0.00,meteohub,2013-10-07 11:50:00,
2013-10-07 07:55:00,73.8,71.6,29.89,WSW,242,0.0,1.0,93,0.00,,,0.00,meteohub,2013-10-07 11:55:00,
2013-10-07 08:00:00,74.1,72.0,29.89,WSW,241,0.0,3.0,93,0.00,,,0.00,meteohub,2013-10-07 12:00:00,
2013-10-07 08:05:00,74.7,72.1,29.89,WSW,240,0.0,3.0,92,0.00,,,0.00,meteohub,2013-10-07 12:05:00,
2013-10-07 08:10:00,75.0,72.5,29.89,SW,232,0.0,3.0,92,0.00,,,0.00,meteohub,2013-10-07 12:10:00,
2013-10-07 08:15:00,75.6,72.7,29.89,SW,228,2.0,2.0,91,0.00,,,0.00,meteohub,2013-10-07 12:15:00,
2013-10-07 08:20:00,75.9,72.9,29.89,WSW,238,2.0,3.0,90,0.00,,,0.00,meteohub,2013-10-07 12:20:00,
2013-10-07 08:25:00,76.5,73.2,29.89,SW,227,0.0,3.0,90,0.00,,,0.00,meteohub,2013-10-07 12:25:00,
2013-10-07 08:30:00,76.8,73.0,29.89,West,281,0.0,6.0,88,0.00,,,0.00,meteohub,2013-10-07 12:30:00,
2013-10-07 08:35:00,77.5,73.4,29.89,WSW,246,0.0,6.0,87,0.00,,,0.00,meteohub,2013-10-07 12:35:00,
2013-10-07 08:40:00,78.1,73.6,29.89,West,273,1.0,6.0,86,0.00,,,0.00,meteohub,2013-10-07 12:40:00,
2013-10-07 08:45:00,78.6,73.8,29.89,SW,217,0.0,5.0,85,0.00,,,0.00,meteohub,2013-10-07 12:45:00,
2013-10-07 08:50:00,79.2,73.9,29.89,SSW,207,2.0,5.0,84,0.00,,,0.00,meteohub,2013-10-07 12:50:00,
2013-10-07 08:55:00,79.5,73.9,29.89,West,263,3.0,6.0,83,0.00,,,0.00,meteohub,2013-10-07 12:55:00,
2013-10-07 09:00:00,80.1,74.5,29.89,WSW,240,1.0,7.0,83,0.00,,,0.00,meteohub,2013-10-07 13:00:00,
2013-10-07 09:05:00,80.2,74.3,29.90,South,175,4.0,7.0,82,0.00,,,0.00,meteohub,2013-10-07 13:05:00,
2013-10-07 09:10:00,80.8,74.8,29.90,SSW,198,0.0,7.0,82,0.00,,,0.00,meteohub,2013-10-07 13:10:00,
2013-10-07 09:15:00,81.1,74.3,29.90,SSW,207,3.0,6.0,80,0.00,,,0.00,meteohub,2013-10-07 13:15:00,
2013-10-07 09:20:00,81.3,74.5,29.90,West,279,2.0,6.0,80,0.00,,,0.00,meteohub,2013-10-07 13:20:00,
2013-10-07 09:25:00,81.7,74.5,29.90,WNW,285,4.0,8.0,79,0.00,,,0.00,meteohub,2013-10-07 13:25:00,
2013-10-07 09:30:00,82.0,74.5,29.90,SW,229,2.0,8.0,78,0.00,,,0.00,meteohub,2013-10-07 13:30:00,
2013-10-07 09:35:00,82.4,74.8,29.89,South,178,4.0,8.0,78,0.00,,,0.00,meteohub,2013-10-07 13:35:00,
2013-10-07 09:40:00,82.4,74.1,29.89,SSW,200,5.0,7.0,76,0.00,,,0.00,meteohub,2013-10-07 13:40:00,
2013-10-07 09:45:00,82.6,74.3,29.89,South,175,5.0,7.0,76,0.00,,,0.00,meteohub,2013-10-07 13:45:00,
2013-10-07 09:50:00,82.9,74.1,29.90,SSW,202,0.0,7.0,75,0.00,,,0.00,meteohub,2013-10-07 13:50:00,
2013-10-07 09:55:00,83.7,74.5,29.90,West,281,0.0,7.0,74,0.00,,,0.00,meteohub,2013-10-07 13:55:00,
2013-10-07 10:00:00,83.8,73.8,29.90,SW,222,2.0,7.0,72,0.00,,,0.00,meteohub,2013-10-07 14:00:00,
2013-10-07 10:05:00,83.8,73.4,29.90,West,259,3.0,8.0,71,0.00,,,0.00,meteohub,2013-10-07 14:05:00,
2013-10-07 10:10:00,83.8,73.4,29.90,SSW,213,3.0,8.0,71,0.00,,,0.00,meteohub,2013-10-07 14:10:00,
2013-10-07 10:16:00,84.0,73.2,29.90,SW,218,2.0,10.0,70,0.00,,,0.00,meteohub,2013-10-07 14:16:00,
2013-10-07 10:21:00,84.4,73.6,29.90,WNW,291,4.0,10.0,70,0.00,,,0.00,meteohub,2013-10-07 14:21:00,
2013-10-07 10:26:00,84.6,73.2,29.90,South,183,3.0,10.0,69,0.00,,,0.00,meteohub,2013-10-07 14:26:00,
2013-10-07 10:31:00,84.9,73.2,29.90,WSW,238,4.0,8.0,68,0.00,,,0.00,meteohub,2013-10-07 14:31:00,
2013-10-07 10:36:00,85.3,72.7,29.90,WSW,255,1.0,9.0,66,0.00,,,0.00,meteohub,2013-10-07 14:36:00,
2013-10-07 10:41:00,85.3,72.7,29.90,SW,233,1.0,9.0,66,0.00,,,0.00,meteohub,2013-10-07 14:41:00,
2013-10-07 10:46:00,85.5,72.9,29.90,SW,215,0.0,9.0,66,0.00,,,0.00,meteohub,2013-10-07 14:46:00,
2013-10-07 10:51:00,85.6,73.0,29.90,SSW,194,0.0,7.0,66,0.00,,,0.00,meteohub,2013-10-07 14:51:00,
2013-10-07 10:55:00,86.4,73.6,29.90,West,280,5.0,7.0,66,0.00,,,0.00,meteohub,2013-10-07 14:55:00,
2013-10-07 11:00:00,86.5,72.9,29.90,South,182,3.0,9.0,64,0.00,,,0.00,meteohub,2013-10-07 15:00:00,
2013-10-07 11:05:00,86.7,73.0,29.90,SSW,204,6.0,10.0,64,0.00,,,0.00,meteohub,2013-10-07 15:05:00,
2013-10-07 11:11:00,87.1,73.4,29.90,SW,227,2.0,10.0,64,0.00,,,0.00,meteohub,2013-10-07 15:11:00,
2013-10-07 11:16:00,87.3,73.6,29.89,SW,217,5.0,10.0,64,0.00,,,0.00,meteohub,2013-10-07 15:16:00,
2013-10-07 11:21:00,87.3,72.7,29.89,SW,215,1.0,10.0,62,0.00,,,0.00,meteohub,2013-10-07 15:21:00,
2013-10-07 11:26:00,87.4,72.9,29.89,WNW,292,2.0,10.0,62,0.00,,,0.00,meteohub,2013-10-07 15:26:00,
2013-10-07 11:31:00,88.0,73.4,29.89,SSW,198,4.0,10.0,62,0.00,,,0.00,meteohub,2013-10-07 15:31:00,
2013-10-07 11:36:00,87.6,73.0,29.89,SSW,213,4.0,8.0,62,0.00,,,0.00,meteohub,2013-10-07 15:36:00,
2013-10-07 11:41:00,87.6,73.9,29.88,SW,223,4.0,7.0,64,0.00,,,0.00,meteohub,2013-10-07 15:41:00,
2013-10-07 11:46:00,88.2,73.4,29.88,SW,219,3.0,8.0,62,0.00,,,0.00,meteohub,2013-10-07 15:46:00,
2013-10-07 11:51:00,88.5,72.9,29.88,SW,226,4.0,8.0,60,0.00,,,0.00,meteohub,2013-10-07 15:51:00,
2013-10-07 11:56:00,88.9,73.2,29.88,SW,221,7.0,11.0,60,0.00,,,0.00,meteohub,2013-10-07 15:56:00,
2013-10-07 12:01:00,88.3,72.1,29.88,SSW,205,2.0,11.0,59,0.00,,,0.00,meteohub,2013-10-07 16:01:00,
2013-10-07 12:06:00,88.2,71.6,29.88,WSW,247,2.0,11.0,58,0.00,,,0.00,meteohub,2013-10-07 16:06:00,
2013-10-07 12:11:00,88.5,72.3,29.88,ESE,105,4.0,11.0,59,0.00,,,0.00,meteohub,2013-10-07 16:11:00,
2013-10-07 12:16:00,89.1,72.9,29.88,WSW,242,2.0,8.0,59,0.00,,,0.00,meteohub,2013-10-07 16:16:00,
2013-10-07 12:21:00,89.8,73.0,29.87,SW,217,2.0,8.0,58,0.00,,,0.00,meteohub,2013-10-07 16:21:00,
2013-10-07 12:26:00,89.8,72.5,29.87,WSW,253,4.0,11.0,57,0.00,,,0.00,meteohub,2013-10-07 16:26:00,
2013-10-07 12:31:00,89.8,72.5,29.87,WNW,290,8.0,11.0,57,0.00,,,0.00,meteohub,2013-10-07 16:31:00,
2013-10-07 12:36:00,89.4,71.6,29.86,NW,313,4.0,11.0,56,0.00,,,0.00,meteohub,2013-10-07 16:36:00,
2013-10-07 12:41:00,89.2,72.0,29.86,West,271,4.0,9.0,57,0.00,,,0.00,meteohub,2013-10-07 16:41:00,
2013-10-07 12:46:00,89.6,72.3,29.86,West,275,0.0,13.0,57,0.00,,,0.00,meteohub,2013-10-07 16:46:00,
2013-10-07 12:51:00,90.5,72.7,29.86,SSW,205,3.0,13.0,56,0.00,,,0.00,meteohub,2013-10-07 16:51:00,
2013-10-07 12:56:00,90.1,72.3,29.86,SW,223,0.0,13.0,56,0.00,,,0.00,meteohub,2013-10-07 16:56:00,
2013-10-07 13:01:00,90.0,71.6,29.86,SW,217,2.0,9.0,55,0.00,,,0.00,meteohub,2013-10-07 17:01:00,
2013-10-07 13:06:00,89.8,72.0,29.85,WSW,242,0.0,9.0,56,0.00,,,0.00,meteohub,2013-10-07 17:06:00,
2013-10-07 13:11:00,89.6,71.8,29.85,West,277,3.0,9.0,56,0.00,,,0.00,meteohub,2013-10-07 17:11:00,
2013-10-07 13:16:00,89.6,72.9,29.85,WSW,249,0.0,9.0,58,0.00,,,0.00,meteohub,2013-10-07 17:16:00,
2013-10-07 13:21:00,90.0,72.7,29.85,South,187,4.0,11.0,57,0.00,,,0.00,meteohub,2013-10-07 17:21:00,
2013-10-07 13:26:00,90.5,72.7,29.85,South,188,3.0,11.0,56,0.00,,,0.00,meteohub,2013-10-07 17:26:00,
2013-10-07 13:31:00,90.5,72.1,29.85,WNW,284,7.0,11.0,55,0.00,,,0.00,meteohub,2013-10-07 17:31:00,
2013-10-07 13:36:00,90.1,71.2,29.85,West,277,3.0,10.0,54,0.00,,,0.00,meteohub,2013-10-07 17:36:00,
2013-10-07 13:41:00,91.0,71.6,29.84,NW,304,5.0,10.0,53,0.00,,,0.00,meteohub,2013-10-07 17:41:00,
2013-10-07 13:46:00,91.6,71.4,29.84,SSW,203,0.0,10.0,52,0.00,,,0.00,meteohub,2013-10-07 17:46:00,
2013-10-07 13:51:00,91.8,72.7,29.84,WSW,252,3.0,10.0,54,0.00,,,0.00,meteohub,2013-10-07 17:51:00,
2013-10-07 13:56:00,91.8,72.7,29.83,SSW,209,6.0,10.0,54,0.00,,,0.00,meteohub,2013-10-07 17:56:00,
2013-10-07 14:01:00,91.8,72.7,29.83,South,184,1.0,8.0,54,0.00,,,0.00,meteohub,2013-10-07 18:01:00,
2013-10-07 14:06:00,91.2,75.9,29.83,SSE,150,3.0,7.0,61,0.00,,,0.00,meteohub,2013-10-07 18:06:00,
2013-10-07 14:11:00,90.7,76.8,29.83,South,186,8.0,10.0,64,0.00,,,0.00,meteohub,2013-10-07 18:11:00,
2013-10-07 14:16:00,89.6,76.6,29.83,South,169,11.0,15.0,66,0.00,,,0.00,meteohub,2013-10-07 18:16:00,
2013-10-07 14:21:00,89.2,76.8,29.83,South,175,5.0,15.0,67,0.00,,,0.00,meteohub,2013-10-07 18:21:00,
2013-10-07 14:26:00,89.4,77.5,29.83,SSE,166,4.0,15.0,68,0.00,,,0.00,meteohub,2013-10-07 18:26:00,
2013-10-07 14:31:00,88.9,77.0,29.83,ESE,123,2.0,13.0,68,0.00,,,0.00,meteohub,2013-10-07 18:31:00,
2013-10-07 14:36:00,88.7,76.8,29.82,SSE,162,3.0,12.0,68,0.00,,,0.00,meteohub,2013-10-07 18:36:00,
2013-10-07 14:41:00,88.9,77.4,29.82,East,96,6.0,13.0,69,0.00,,,0.00,meteohub,2013-10-07 18:41:00,
2013-10-07 14:46:00,88.3,76.8,29.81,SSE,155,6.0,13.0,69,0.00,,,0.00,meteohub,2013-10-07 18:46:00,
2013-10-07 14:51:00,88.0,77.0,29.81,ESE,115,4.0,13.0,70,0.00,,,0.00,meteohub,2013-10-07 18:51:00,
2013-10-07 14:56:00,87.4,76.8,29.81,ESE,120,2.0,13.0,71,0.00,,,0.00,meteohub,2013-10-07 18:56:00,
2013-10-07 15:01:00,86.4,76.3,29.81,SSE,165,5.0,13.0,72,0.00,,,0.00,meteohub,2013-10-07 19:01:00,
2013-10-07 15:06:00,86.0,76.3,29.81,SSW,193,2.0,13.0,73,0.00,,,0.00,meteohub,2013-10-07 19:06:00,
2013-10-07 15:11:00,86.2,76.5,29.81,ESE,121,2.0,12.0,73,0.00,,,0.00,meteohub,2013-10-07 19:11:00,
2013-10-07 15:16:00,86.2,76.1,29.81,SSW,208,4.0,12.0,72,0.00,,,0.00,meteohub,2013-10-07 19:16:00,
2013-10-07 15:21:00,86.5,76.5,29.81,SSE,150,3.0,12.0,72,0.00,,,0.00,meteohub,2013-10-07 19:21:00,
2013-10-07 15:26:00,86.2,77.0,29.81,SSE,165,13.0,13.0,74,0.00,,,0.00,meteohub,2013-10-07 19:26:00,
2013-10-07 15:31:00,85.3,76.5,29.81,South,178,7.0,14.0,75,0.00,,,0.00,meteohub,2013-10-07 19:31:00,
2013-10-07 15:36:00,84.9,76.5,29.82,SSW,198,4.0,14.0,76,0.00,,,0.00,meteohub,2013-10-07 19:36:00,
2013-10-07 15:41:00,85.1,77.0,29.82,South,190,7.0,14.0,77,0.00,,,0.00,meteohub,2013-10-07 19:41:00,
2013-10-07 15:46:00,85.3,76.5,29.82,South,176,1.0,11.0,75,0.00,,,0.00,meteohub,2013-10-07 19:46:00,
2013-10-07 15:51:00,85.3,76.5,29.83,SSW,207,4.0,10.0,75,0.00,,,0.00,meteohub,2013-10-07 19:51:00,
2013-10-07 15:56:00,84.4,73.6,29.85,West,277,4.0,16.0,70,0.00,,,0.00,meteohub,2013-10-07 19:56:00,
2013-10-07 16:01:00,81.0,72.0,29.84,NW,311,6.0,16.0,74,0.00,,,0.00,meteohub,2013-10-07 20:01:00,
2013-10-07 16:06:00,78.3,71.6,29.84,North,0,8.0,18.0,80,0.00,,,0.00,meteohub,2013-10-07 20:06:00,
2013-10-07 16:11:00,76.5,71.6,29.84,North,0,8.0,19.0,85,0.00,,,0.00,meteohub,2013-10-07 20:11:00,
2013-10-07 16:16:00,75.0,71.2,29.84,NW,315,4.0,19.0,88,0.00,,,0.00,meteohub,2013-10-07 20:16:00,
2013-10-07 16:21:00,74.1,71.1,29.83,SW,234,2.0,19.0,90,0.00,,,0.00,meteohub,2013-10-07 20:21:00,
2013-10-07 16:26:00,73.8,70.9,29.83,WNW,302,2.0,17.0,91,0.00,,,0.00,meteohub,2013-10-07 20:26:00,
2013-10-07 16:31:00,73.4,70.5,29.83,WNW,295,8.0,15.0,91,0.01,,,0.01,meteohub,2013-10-07 20:31:00,
2013-10-07 16:36:00,73.2,70.5,29.83,NW,314,1.0,15.0,91,0.01,,,0.01,meteohub,2013-10-07 20:36:00,
2013-10-07 16:41:00,73.4,70.5,29.83,North,350,1.0,15.0,91,0.02,,,0.02,meteohub,2013-10-07 20:41:00,
2013-10-07 16:46:00,73.6,70.7,29.83,NW,323,2.0,11.0,91,0.02,,,0.02,meteohub,2013-10-07 20:46:00,
2013-10-07 16:51:00,73.8,71.2,29.83,NW,309,1.0,11.0,92,0.02,,,0.02,meteohub,2013-10-07 20:51:00,
2013-10-07 16:56:00,73.9,71.4,29.83,NW,323,1.0,3.0,92,0.02,,,0.02,meteohub,2013-10-07 20:56:00,
2013-10-07 17:01:00,73.9,71.4,29.84,North,355,0.0,5.0,92,0.02,,,0.02,meteohub,2013-10-07 21:01:00,
2013-10-07 17:07:00,73.9,71.8,29.85,NW,321,0.0,5.0,93,0.02,,,0.02,meteohub,2013-10-07 21:07:00,
2013-10-07 17:12:00,73.9,71.8,29.84,NW,322,0.0,7.0,93,0.02,,,0.02,meteohub,2013-10-07 21:12:00,
2013-10-07 17:17:00,73.9,71.8,29.84,North,0,0.0,7.0,93,0.03,,,0.03,meteohub,2013-10-07 21:17:00,
2013-10-07 17:22:00,73.9,71.8,29.84,NW,317,0.0,7.0,93,0.03,,,0.03,meteohub,2013-10-07 21:22:00,
2013-10-07 17:27:00,73.9,72.1,29.83,NNW,333,0.0,7.0,94,0.02,,,0.03,meteohub,2013-10-07 21:27:00,
2013-10-07 17:32:00,74.1,72.0,29.84,West,277,0.0,5.0,93,0.03,,,0.04,meteohub,2013-10-07 21:32:00,
2013-10-07 17:37:00,74.1,72.0,29.85,NW,319,0.0,5.0,93,0.03,,,0.04,meteohub,2013-10-07 21:37:00,
2013-10-07 17:41:00,74.1,72.0,29.86,NW,320,0.0,2.0,93,0.02,,,0.04,meteohub,2013-10-07 21:41:00,
2013-10-07 17:47:00,74.1,72.3,29.86,NW,315,0.0,2.0,94,0.02,,,0.04,meteohub,2013-10-07 21:47:00,
2013-10-07 17:52:00,74.1,72.0,29.86,NW,323,0.0,3.0,93,0.02,,,0.04,meteohub,2013-10-07 21:52:00,
2013-10-07 17:57:00,74.1,72.3,29.86,NW,323,0.0,3.0,94,0.02,,,0.04,meteohub,2013-10-07 21:57:00,
2013-10-07 18:02:00,74.5,72.7,29.86,NW,323,0.0,3.0,94,0.02,,,0.04,meteohub,2013-10-07 22:02:00,
2013-10-07 18:07:00,74.5,72.7,29.86,North,350,0.0,1.0,94,0.02,,,0.04,meteohub,2013-10-07 22:07:00,
2013-10-07 18:12:00,74.5,72.7,29.86,North,350,0.0,0.0,94,0.01,,,0.04,meteohub,2013-10-07 22:12:00,
2013-10-07 18:17:00,74.5,72.7,29.86,North,350,0.0,0.0,94,0.01,,,0.04,meteohub,2013-10-07 22:17:00,
2013-10-07 18:22:00,74.5,72.7,29.87,North,350,0.0,0.0,94,0.01,,,0.04,meteohub,2013-10-07 22:22:00,
2013-10-07 18:27:00,74.7,72.9,29.86,North,5,0.0,0.0,94,0.01,,,0.04,meteohub,2013-10-07 22:27:00,
2013-10-07 18:32:00,74.5,72.7,29.86,NNE,29,0.0,2.0,94,0.00,,,0.04,meteohub,2013-10-07 22:32:00,
2013-10-07 18:37:00,74.5,72.7,29.86,NNE,29,1.0,2.0,94,0.00,,,0.04,meteohub,2013-10-07 22:37:00,
2013-10-07 18:42:00,74.5,72.7,29.86,NNE,29,0.0,2.0,94,0.00,,,0.04,meteohub,2013-10-07 22:42:00,
2013-10-07 18:47:00,74.3,72.5,29.86,NNE,29,0.0,2.0,94,0.00,,,0.04,meteohub,2013-10-07 22:47:00,
2013-10-07 18:52:00,74.1,72.3,29.86,NNE,29,0.0,1.0,94,0.00,,,0.04,meteohub,2013-10-07 22:52:00,
2013-10-07 18:57:00,74.1,72.3,29.86,NNE,29,0.0,1.0,94,0.00,,,0.04,meteohub,2013-10-07 22:57:00,
2013-10-07 19:02:00,74.3,72.9,29.86,NNE,29,0.0,1.0,95,0.00,,,0.04,meteohub,2013-10-07 23:02:00,
2013-10-07 19:07:00,74.5,72.7,29.86,NNE,29,0.0,1.0,94,0.00,,,0.04,meteohub,2013-10-07 23:07:00,
2013-10-07 19:12:00,74.3,72.5,29.86,NNE,29,0.0,0.0,94,0.00,,,0.04,meteohub,2013-10-07 23:12:00,
2013-10-07 19:17:00,74.3,72.9,29.86,NNE,29,0.0,0.0,95,0.00,,,0.04,meteohub,2013-10-07 23:17:00,
2013-10-07 19:22:00,74.1,72.3,29.86,NNE,29,0.0,0.0,94,0.00,,,0.04,meteohub,2013-10-07 23:22:00,
2013-10-07 19:27:00,74.1,72.7,29.86,NNE,29,0.0,0.0,95,0.00,,,0.04,meteohub,2013-10-07 23:27:00,
2013-10-07 19:32:00,74.1,72.7,29.86,NNE,29,0.0,0.0,95,0.00,,,0.04,meteohub,2013-10-07 23:32:00,
2013-10-07 19:37:00,74.1,72.7,29.87,NNE,29,0.0,0.0,95,0.00,,,0.04,meteohub,2013-10-07 23:37:00,
2013-10-07 19:42:00,74.1,72.7,29.87,South,181,1.0,4.0,95,0.00,,,0.04,meteohub,2013-10-07 23:42:00,
2013-10-07 19:47:00,74.1,72.7,29.87,ESE,115,0.0,4.0,95,0.00,,,0.04,meteohub,2013-10-07 23:47:00,
2013-10-07 19:52:00,74.1,72.7,29.87,SSE,153,2.0,4.0,95,0.00,,,0.04,meteohub,2013-10-07 23:52:00,
2013-10-07 19:57:00,74.1,72.7,29.86,South,190,0.0,3.0,95,0.00,,,0.04,meteohub,2013-10-07 23:57:00,
2013-10-07 20:02:00,74.1,72.7,29.86,SSW,201,0.0,3.0,95,0.00,,,0.04,meteohub,2013-10-08 00:02:00,
2013-10-07 20:07:00,74.3,72.9,29.86,SSW,201,0.0,3.0,95,0.00,,,0.00,meteohub,2013-10-08 00:07:00,
2013-10-07 20:12:00,74.5,73.0,29.86,South,173,0.0,2.0,95,0.00,,,0.00,meteohub,2013-10-08 00:12:00,
2013-10-07 20:17:00,74.5,73.0,29.86,SSW,194,0.0,2.0,95,0.00,,,0.00,meteohub,2013-10-08 00:17:00,
2013-10-07 20:22:00,74.5,73.0,29.86,SSW,194,0.0,1.0,95,0.00,,,0.00,meteohub,2013-10-08 00:22:00,
2013-10-07 20:27:00,74.7,73.2,29.86,SSW,194,0.0,1.0,95,0.00,,,0.00,meteohub,2013-10-08 00:27:00,
2013-10-07 20:32:00,74.7,73.2,29.87,SSE,158,0.0,1.0,95,0.00,,,0.00,meteohub,2013-10-08 00:32:00,
2013-10-07 20:37:00,74.8,73.2,29.87,ESE,115,0.0,1.0,95,0.00,,,0.00,meteohub,2013-10-08 00:37:00,
2013-10-07 20:42:00,75.0,73.4,29.87,SSE,153,1.0,2.0,95,0.00,,,0.00,meteohub,2013-10-08 00:42:00,
2013-10-07 20:47:00,75.4,73.8,29.88,SSE,168,1.0,3.0,95,0.00,,,0.00,meteohub,2013-10-08 00:47:00,
2013-10-07 20:52:00,75.6,73.8,29.88,SSE,152,0.0,4.0,94,0.00,,,0.00,meteohub,2013-10-08 00:52:00,
2013-10-07 20:57:00,75.6,73.8,29.88,SSE,150,0.0,4.0,94,0.00,,,0.00,meteohub,2013-10-08 00:57:00,
2013-10-07 21:02:00,75.6,73.8,29.88,SE,130,0.0,4.0,94,0.00,,,0.00,meteohub,2013-10-08 01:02:00,
2013-10-07 21:07:00,75.7,73.9,29.88,SSE,161,0.0,3.0,94,0.00,,,0.00,meteohub,2013-10-08 01:07:00,
2013-10-07 21:12:00,75.7,73.9,29.88,SSE,161,0.0,1.0,94,0.00,,,0.00,meteohub,2013-10-08 01:12:00,
2013-10-07 21:17:00,75.7,73.6,29.88,SSE,160,0.0,2.0,93,0.00,,,0.00,meteohub,2013-10-08 01:17:00,
2013-10-07 21:22:00,75.7,73.6,29.88,SSE,163,0.0,2.0,93,0.00,,,0.00,meteohub,2013-10-08 01:22:00,
2013-10-07 21:27:00,75.7,73.6,29.88,SSE,163,0.0,2.0,93,0.00,,,0.00,meteohub,2013-10-08 01:27:00,
2013-10-07 21:32:00,75.7,73.6,29.88,SSE,163,0.0,0.0,93,0.00,,,0.00,meteohub,2013-10-08 01:32:00,
2013-10-07 21:37:00,75.7,73.6,29.88,SSE,163,0.0,0.0,93,0.00,,,0.00,meteohub,2013-10-08 01:37:00,
2013-10-07 21:41:00,75.7,73.6,29.88,SSE,163,0.0,0.0,93,0.00,,,0.00,meteohub,2013-10-08 01:41:00,
2013-10-07 21:47:00,75.7,73.6,29.88,SSE,163,0.0,0.0,93,0.00,,,0.00,meteohub,2013-10-08 01:47:00,
2013-10-07 21:51:00,75.7,73.6,29.89,SSE,163,0.0,0.0,93,0.00,,,0.00,meteohub,2013-10-08 01:51:00,
2013-10-07 21:57:00,75.7,73.9,29.89,SSE,163,0.0,0.0,94,0.00,,,0.00,meteohub,2013-10-08 01:57:00,
2013-10-07 22:02:00,75.6,73.8,29.89,SSE,163,0.0,0.0,94,0.00,,,0.00,meteohub,2013-10-08 02:02:00,
2013-10-07 22:07:00,75.6,73.8,29.89,SSE,163,0.0,0.0,94,0.00,,,0.00,meteohub,2013-10-08 02:07:00,
2013-10-07 22:12:00,75.6,73.8,29.89,SSE,163,0.0,0.0,94,0.00,,,0.00,meteohub,2013-10-08 02:12:00,
2013-10-07 22:17:00,75.6,73.8,29.89,SSE,163,0.0,0.0,94,0.00,,,0.00,meteohub,2013-10-08 02:17:00,
2013-10-07 22:22:00,75.4,73.6,29.89,SSE,163,0.0,0.0,94,0.00,,,0.00,meteohub,2013-10-08 02:22:00,
2013-10-07 22:27:00,75.4,73.6,29.89,SSE,163,0.0,0.0,94,0.00,,,0.00,meteohub,2013-10-08 02:27:00,
2013-10-07 22:32:00,75.4,73.6,29.89,SSE,163,0.0,0.0,94,0.00,,,0.00,meteohub,2013-10-08 02:32:00,
2013-10-07 22:37:00,75.2,73.4,29.89,SSE,163,0.0,0.0,94,0.00,,,0.00,meteohub,2013-10-08 02:37:00,
2013-10-07 22:42:00,75.0,73.2,29.88,SSE,163,0.0,0.0,94,0.00,,,0.00,meteohub,2013-10-08 02:42:00,
2013-10-07 22:46:00,75.0,73.2,29.88,SSE,163,0.0,0.0,94,0.00,,,0.00,meteohub,2013-10-08 02:46:00,
2013-10-07 22:52:00,75.0,73.2,29.88,SSE,163,0.0,0.0,94,0.00,,,0.00,meteohub,2013-10-08 02:52:00,
2013-10-07 22:57:00,75.0,73.2,29.88,SSE,163,0.0,0.0,94,0.00,,,0.00,meteohub,2013-10-08 02:57:00,
2013-10-07 23:02:00,75.0,73.2,29.88,SSE,163,0.0,1.0,94,0.00,,,0.00,meteohub,2013-10-08 03:02:00,
2013-10-07 23:07:00,75.0,73.2,29.88,SSW,202,0.0,2.0,94,0.00,,,0.00,meteohub,2013-10-08 03:07:00,
2013-10-07 23:12:00,75.2,73.0,29.88,South,185,0.0,3.0,93,0.00,,,0.00,meteohub,2013-10-08 03:12:00,
2013-10-07 23:17:00,75.4,73.2,29.88,South,191,0.0,3.0,93,0.00,,,0.00,meteohub,2013-10-08 03:17:00,
2013-10-07 23:22:00,75.4,73.2,29.88,South,191,0.0,3.0,93,0.00,,,0.00,meteohub,2013-10-08 03:22:00,
2013-10-07 23:27:00,75.4,73.2,29.88,SSW,192,3.0,3.0,93,0.00,,,0.00,meteohub,2013-10-08 03:27:00,
2013-10-07 23:32:00,75.4,72.9,29.88,SSW,196,0.0,3.0,92,0.00,,,0.00,meteohub,2013-10-08 03:32:00,
2013-10-07 23:37:00,75.4,72.9,29.87,SSW,200,0.0,3.0,92,0.00,,,0.00,meteohub,2013-10-08 03:37:00,
2013-10-07 23:42:00,75.6,73.0,29.87,South,178,0.0,3.0,92,0.00,,,0.00,meteohub,2013-10-08 03:42:00,
2013-10-07 23:47:00,75.6,73.0,29.87,SSW,208,0.0,3.0,92,0.00,,,0.00,meteohub,2013-10-08 03:47:00,
2013-10-07 23:52:00,75.6,73.0,29.86,SSW,202,1.0,3.0,92,0.00,,,0.00,meteohub,2013-10-08 03:52:00,
2013-10-07 23:57:00,75.6,73.0,29.87,South,187,0.0,3.0,92,0.00,,,0.00,meteohub,2013-10-08 03:57:00,